Flag for India Weather past 2 weeks in Virudhunagar, Tamil Nadu, India

Now
81 °F

Fog.


Feels Like: 85 °F
Forecast: 74 / 91 °F
Wind: 3 mph from Northeast

Location: Tiruchchirapalli

Current Time: Mar 1, 2015 at 9:15:04 AM

Latest Report: Mar 1, 2015 at 7:40 AM


Visibility: 2 mi

Pressure: 29.86 "Hg

Humidity: 79%

Dew point: 73 °F

Location of VirudhunagarLocation

Historic Weather in Virudhunagar — Graph

°F

Virudhunagar temperature yesterday

Maximum temperature yesterday: 97 °F (at 1:40 PM)
Minimum temperature yesterday: 79 °F (at 12:40 AM)
Average temperature yesterday: 86 °F

Past Weeks' High & Low Weather Summary

 TemperatureHumidityPressure
High97 °F (Feb 28, 1:40 PM)94% (Feb 14, 6:40 AM)30.01 "Hg (Feb 14, 6:40 AM)
Low68 °F (Feb 17, 4:40 AM)25% (Feb 24, 3:40 PM)29.71 "Hg (Feb 27, 4:40 PM)
Average82 °F62%29.88 "Hg
* Reported Feb 14 6:40 AM — Mar 1 6:40 AM, Virudhunagar, Weather by CustomWeather, © 2015

Note: Actual official high and low records may vary slightly from our data, if they occured in-between our weather recording intervals... More about our weather records

Advertising

Virudhunagar weather history for previous 24 hours

 ConditionsComfort  
Time TempWeatherWind HumidityBarometerVisibility
6:40 AM
Sun, Mar 1
79 °FFog.3 mph84%29.83 "Hg2 mi
5:40 AM77 °FFog.3 mph89%29.83 "Hg2 mi
4:40 AM77 °FFog.6 mph89%29.80 "Hg2 mi
2:40 AM79 °FPassing clouds.5 mph89%29.83 "Hg3 mi
1:40 AM79 °FPassing clouds.8 mph89%29.86 "Hg3 mi
11:40 PM
Sat, Feb 28
81 °FPassing clouds.7 mph79%29.89 "Hg4 mi
10:40 PM81 °FPassing clouds.5 mph70%29.89 "Hg4 mi
9:40 PM82 °FPassing clouds.7 mph62%29.86 "Hg4 mi
8:40 PM84 °FPassing clouds.10 mph58%29.83 "Hg4 mi
7:40 PM88 °FPassing clouds.9 mph49%29.80 "Hg4 mi
6:40 PM91 °FPassing clouds.12 mph44%29.77 "Hg4 mi
5:40 PM93 °FPassing clouds.7 mph44%29.74 "HgN/A
4:40 PM95 °FPassing clouds.9 mph44%29.74 "HgN/A
3:40 PM97 °FPassing clouds.9 mph42%29.74 "HgN/A
2:40 PM97 °FScattered clouds.8 mph42%29.77 "Hg5 mi
1:40 PM97 °FScattered clouds.9 mph42%29.80 "Hg5 mi
12:40 PM95 °FScattered clouds.3 mph44%29.83 "Hg4 mi
11:40 AM91 °FScattered clouds.3 mph52%29.86 "Hg4 mi
10:40 AM90 °FScattered clouds.3 mph59%29.89 "Hg4 mi
Weather by CustomWeather, © 2015

See weather overviewHow to use our weather pages